Location: D�derode
(51.8092°N, 10.1065°E)
Time: 20:56:56
(UTC+00:00)

Envisat - Pass Details

Date: 01 December 2020
Orbit: 764 x 766 km, 98.1° (Epoch: 25 January)

Event Time Altitude Azimuth Distance (km) Brightness Sun altitude
Rises 16:36:11 0° 178° (S) 3,221 6.5 -12.3°
Reaches altitude 10° 16:38:31 10° 183° (S) 2,300 5.8 -12.6°
Maximum altitude 16:43:29 53° 260° (W) 940 3.9 -13.3°
Drops below altitude 10° 16:48:29 10° 338° (NNW) 2,317 5.5 -14.0°
Sets 16:50:52 0° 343° (NNW) 3,248 6.3 -14.4°
